Flag for U.S.A. Weather past 2 weeks in Port St. Lucie, Florida, U.S.A.

Now
66 °F

Clear.


Feels Like: 66 °F
Forecast: 60 / 79 °F
Wind: No wind

Location: Witham Field Airport

Current Time: Dec 20, 2014 at 9:24:16 PM

Latest Report: Dec 20, 2014 at 8:55 PM


Visibility: 10 mi

Pressure: 30.11 "Hg

Humidity: 78%

Dew point: 59 °F

Location of Port St. LucieLocation

Historic Weather in Port St. Lucie — Graph

°F

Port St. Lucie temperature yesterday

Maximum temperature yesterday: 73 °F (at 1:47 PM)
Minimum temperature yesterday: 52 °F (at 12:15 AM)
Average temperature yesterday: 59 °F

Past Weeks' High & Low Weather Summary

 TemperatureHumidityPressure
High77 °F (Dec 6, 11:47 AM)100% (Dec 7, 1:55 AM)30.26 "Hg (Dec 7, 1:55 AM)
Low43 °F (Dec 11, 3:15 AM)30% (Dec 14, 11:47 AM)29.98 "Hg (Dec 9, 3:47 PM)
Average59 °F80%30.12 "Hg
* Reported Dec 5 8:15 PM — Dec 20 8:15 PM, Port St. Lucie, Weather by CustomWeather, © 2014

Note: Actual official high and low records may vary slightly from our data, if they occured in-between our weather recording intervals... More about our weather records

Advertising

Port St. Lucie weather history for previous 24 hours

 ConditionsComfort  
Time TempWeatherWind HumidityBarometerVisibility
8:15 PM
Dec 20
64 °FClear.No wind83%30.10 "Hg10 mi
7:55 PM66 °FClear.3 mph78%30.10 "Hg10 mi
7:35 PM66 °FClear.3 mph78%30.09 "Hg10 mi
7:15 PM66 °FClear.3 mph78%30.09 "Hg10 mi
5:47 PM70 °FPassing clouds.9 mph73%30.07 "Hg7 mi
4:47 PM73 °FScattered clouds.9 mph61%30.06 "Hg7 mi
3:47 PM75 °FScattered clouds.13 mph57%30.05 "Hg7 mi
2:47 PM77 °FScattered clouds.9 mph54%30.05 "Hg7 mi
1:47 PM77 °FScattered clouds.14 mph51%30.05 "Hg7 mi
12:47 PM75 °FScattered clouds.14 mph54%30.08 "Hg7 mi
11:47 AM75 °FScattered clouds.5 mph50%30.11 "Hg7 mi
10:47 AM73 °FScattered clouds.No wind61%30.13 "Hg7 mi
9:47 AM72 °FBroken clouds.No wind69%30.14 "Hg7 mi
8:55 AM66 °FBroken clouds.No wind88%30.13 "Hg7 mi
7:47 AM59 °FBroken clouds.No wind100%30.11 "Hg7 mi
6:47 AM59 °FPassing clouds.No wind100%30.10 "Hg7 mi
5:15 AM55 °FPassing clouds.No wind100%30.06 "Hg7 mi
4:55 AM55 °FFog.No wind100%30.06 "Hg4 mi
4:35 AM55 °FFog.No wind100%30.05 "Hg4 mi
4:15 AM57 °FPassing clouds.No wind94%30.05 "Hg7 mi
3:55 AM59 °FPassing clouds.No wind94%30.06 "Hg7 mi
3:35 AM59 °FClear.No wind94%30.06 "Hg7 mi
3:15 AM59 °FPassing clouds.No wind94%30.07 "Hg7 mi
2:55 AM59 °FPassing clouds.3 mph94%30.07 "Hg10 mi
2:35 AM59 °FClear.No wind94%30.06 "Hg10 mi
2:15 AM59 °FPassing clouds.No wind100%30.07 "Hg10 mi
1:55 AM59 °FPassing clouds.No wind100%30.07 "Hg10 mi
1:35 AM59 °FOvercast.No wind100%30.07 "Hg10 mi
1:15 AM59 °FOvercast.No wind94%30.08 "Hg10 mi
12:55 AM57 °FPassing clouds.No wind94%30.08 "Hg10 mi
12:35 AM59 °FClear.No wind94%30.08 "Hg7 mi
12:15 AM59 °FPassing clouds.No wind94%30.09 "Hg10 mi
11:55 PM
Dec 19
59 °FPassing clouds.No wind88%30.09 "Hg7 mi
11:35 PM59 °FClear.No wind94%30.09 "Hg7 mi
11:15 PM59 °FClear.No wind94%30.10 "Hg10 mi
10:55 PM59 °FClear.No wind94%30.10 "Hg10 mi
10:35 PM61 °FClear.No wind94%30.10 "Hg10 mi
9:55 PM61 °FPassing clouds.No wind94%30.10 "Hg10 mi
9:35 PM61 °FPassing clouds.No wind94%30.10 "Hg10 mi
9:15 PM59 °FClear.No wind94%30.10 "Hg10 mi
Weather by CustomWeather, © 2014

See weather overviewHow to use our weather pages